[[{"header":{"parameterUnit":"m.s-1","parameterCategory":1,"la1":30.2991,"la2":30.254,"lo1":-89.0895,"lo2":-89.0444,"dy":0.0017,"dx":0.0017,"nx":28,"ny":28,"refTime":"2025-08-21T03:00:00:Z","depth":0,"parameterNumber":2,"parameterNumberName":"U-component_of_WINDS"},"data":[0,0,0,0,0,0,0,0,0,0,0,0,0,0,0,0,0,0,0,0,0,0,0,0,0,0,0,0,0,0,0,0,0,0,0,0,0,0,0,0,0,0,0,0,0,0,0,0,0,0,0,0,0,0,0,0,0,0,1.0883,1.0884,0,1.0973,1.0974,1.0975,1.0991,1.0991,1.099,1.0989,1.1081,1.1084,1.1087,0,0,0,0,0,0,0,0,0,0,0,0,0,1.0727,1.0729,1.0883,1.0884,1.0885,1.0973,1.0974,1.0975,1.0991,1.099,1.099,1.0989,1.108,1.1084,1.1088,0,0,0,0,0,0,0,0,0,0,0,0,0,1.0803,1.073,1.0883,1.0904,1.0907,1.0973,1.0974,1.0976,1.0992,1.099,1.0989,1.0988,1.1079,1.1084,1.1088,1.114,0,0,1.1103,1.1105,0,0,0,0,0,0,0,0,1.0799,1.0809,1.09,1.0903,1.0906,1.097,1.0953,1.1031,1.0992,1.0959,1.0989,1.0988,1.1045,1.1053,1.1072,1.1144,1.1148,1.1103,1.1106,1.1108,1.1109,0,0,0,0,0,0,0,1.0794,1.0805,1.0919,1.0901,1.0905,1.0909,1.0919,1.0968,1.1007,1.0962,1.0964,1.0974,1.1047,1.1067,1.1074,1.1149,1.1103,1.1107,1.111,1.1112,1.1268,1.1269,0,0,0,0,0,0,1.0784,1.0801,1.0916,1.0921,1.0849,1.0913,1.0924,1.095,1.1007,1.1014,1.0975,1.0974,1.106,1.1069,1.1077,1.1141,1.1108,1.1112,1.1115,1.1267,1.1268,1.127,0,0,0,0,0,0,1.0781,1.0795,1.0912,1.0862,1.0877,1.0917,1.0947,1.0953,1.0973,1.1016,1.1024,1.0988,1.1059,1.1071,1.1124,1.1145,1.1115,1.1119,1.1265,1.1267,1.1269,1.1269,0,0,0,0,0,0,1.0776,1.0793,1.0813,1.0862,1.0879,1.0957,1.0948,1.0955,1.0981,1.0982,1.1031,1.1038,1.1059,1.1117,1.1129,1.115,1.1122,1.1264,1.1266,1.1269,1.1267,1.127,1.1273,0,0,0,0,0,1.0771,1.0809,1.0814,1.0828,1.0905,1.0958,1.0968,1.0991,1.0983,1.1003,1.1031,1.1037,1.1141,1.1122,1.1136,1.1159,1.1262,1.1266,1.1268,1.1266,1.127,1.1273,0,0,0,0,0,0,1.0761,1.0816,1.0822,1.0877,1.0913,1.0961,1.0987,1.0995,1.1034,1.1033,1.106,1.1071,1.1123,1.1147,1.1125,1.1212,1.1201,1.1207,1.1194,1.1199,1.1202,1.1195,1.1126,0,0,0,0,0,1.0766,1.0805,1.085,1.0895,1.0912,1.0947,1.0971,1.0985,1.1024,1.1039,1.1071,1.1108,1.1149,1.1175,1.1215,1.1271,1.1282,1.1294,1.1297,1.1299,1.1304,1.1335,1.1341,1.128,1.128,1.128,0,0,1.0775,1.081,1.0833,1.0894,1.0923,1.0963,1.0959,1.1001,1.1031,1.1045,1.1097,1.1122,1.1165,1.122,1.1246,1.1241,1.1323,1.1303,1.1305,1.1308,1.1339,1.1344,1.1349,1.1282,1.1281,1.1281,0,0,1.0813,1.0843,1.0883,1.0913,1.0958,1.098,1.099,1.1037,1.1054,1.1107,1.1119,1.1155,1.1225,1.1255,1.1279,1.1329,1.1336,1.1342,1.1357,1.1388,1.1392,1.1397,1.1414,1.142,1.1346,1.1346,1.1346,0,1.0819,1.0878,1.0903,1.0944,1.0971,1.0986,1.1027,1.1055,1.1111,1.1129,1.1123,1.1212,1.1242,1.1304,1.1316,1.1336,1.1348,1.1335,1.139,1.1394,1.1399,1.1416,1.1422,1.1346,1.1346,1.1346,1.1346,0,1.0884,1.0925,1.0952,1.1005,1.1035,1.1076,1.1107,1.1134,1.1147,1.117,1.1224,1.1261,1.1309,1.1325,1.1337,1.1389,1.1385,1.1384,1.1374,1.1405,1.1421,1.1428,1.1347,1.1347,1.1347,1.1346,0,0,1.0917,1.0983,1.0993,1.1017,1.1068,1.1101,1.1143,1.119,1.1212,1.1251,1.1286,1.1346,1.1346,1.1374,1.139,1.1417,1.1453,1.1413,1.1414,1.1419,1.1512,1.1511,1.1518,1.1459,1.146,1.1461,1.1508,0,1.096,1.1035,1.1058,1.1121,1.1159,1.1175,1.1212,1.1247,1.127,1.1307,1.1332,1.1374,1.1371,1.1388,1.1415,1.1443,1.1472,1.144,1.1492,1.1494,1.148,1.1527,1.1527,1.1569,1.1515,1.1516,1.1517,0,1.1019,1.1058,1.1125,1.1171,1.1188,1.1221,1.1266,1.13,1.1341,1.1356,1.1387,1.1402,1.1447,1.1434,1.1496,1.1474,1.1497,1.1514,1.1516,1.1521,1.1506,1.1533,1.1584,1.159,1.1527,1.1526,1.1525,0,1.1036,1.1105,1.1154,1.1175,1.123,1.1253,1.1277,1.1316,1.1343,1.1383,1.14,1.1445,1.1469,1.1503,1.1529,1.1517,1.1589,1.1578,1.1602,1.1602,1.1616,1.1614,1.167,1.1632,1.1632,1.1632,1.1632,0,1.1081,1.1121,1.1162,1.1192,1.1238,1.1265,1.1309,1.1334,1.1369,1.1405,1.1421,1.1454,1.1487,1.1524,1.1545,1.1593,1.1604,1.1618,1.1623,1.1616,1.1614,1.163,1.1628,1.1633,1.1633,1.1633,1.1632,0,1.1107,1.1136,1.119,1.1239,1.1252,1.1283,1.1324,1.1354,1.1378,1.1423,1.1435,1.1473,1.1517,1.1547,1.1605,1.1619,1.1671,1.1676,1.1657,1.1659,1.1681,1.1678,1.1749,1.1759,1.1714,1.1715,1.1715,0,1.1133,1.1164,1.1216,1.1241,1.1265,1.1304,1.1332,1.136,1.1388,1.1437,1.1461,1.1507,1.1545,1.1616,1.1649,1.1693,1.1698,1.172,1.1705,1.1697,1.1698,1.1695,1.1698,1.1722,1.1722,1.1722,1.1723,0,1.1177,1.119,1.1228,1.1273,1.1305,1.1341,1.1377,1.1396,1.1431,1.1461,1.1507,1.1537,1.1596,1.1641,1.1688,1.1713,1.1724,1.1727,1.1735,1.1728,1.1716,1.1722,1.1663,1.1725,1.1725,1.1725,1.1725,1.1725,1.1203,1.1232,1.1272,1.1315,1.1345,1.1379,1.1409,1.1437,1.1476,1.1525,1.154,1.1588,1.1628,1.1693,1.1719,1.1757,1.1755,1.1766,1.1769,1.1771,1.1771,1.171,1.1766,1.1766,1.1766,1.1766,1.1766,0,1.1247,1.1274,1.1313,1.1363,1.1397,1.1404,1.1445,1.1472,1.1514,1.1551,1.1588,1.1641,1.1685,1.1722,1.1768,1.1791,1.1797,1.1802,1.18,1.1806,1.177,1.1759,1.1796,1.1796,1.1796,1.1796,1.1796,1.1796,1.1274,1.1322,1.134,1.1404,1.1431,1.1477,1.15,1.1531,1.1561,1.1619,1.1655,1.1679,1.1716,1.1765,1.1806,1.1815,1.1831,1.1835,1.1846,1.1812,1.1808,1.1805,1.1794,1.1839,1.1839,1.1878,1.1878,1.1879]},{"header":{"parameterUnit":"m.s-1","parameterCategory":1,"la1":30.2991,"la2":30.254,"lo1":-89.0895,"lo2":-89.0444,"dy":0.0017,"dx":0.0017,"nx":28,"ny":28,"refTime":"2025-08-21T03:00:00:Z","depth":0,"parameterNumber":3,"parameterNumberName":"V-component_of_WINDS"},"data":[0,0,0,0,0,0,0,0,0,0,0,0,0,0,0,0,0,0,0,0,0,0,0,0,0,0,0,0,0,0,0,0,0,0,0,0,0,0,0,0,0,0,0,0,0,0,0,0,0,0,0,0,0,0,0,0,0,0,-1.1343,-1.1343,0,-1.1355,-1.1355,-1.1356,-1.138,-1.1381,-1.1381,-1.1382,-1.1393,-1.1393,-1.1392,0,0,0,0,0,0,0,0,0,0,0,0,0,-1.134,-1.134,-1.1343,-1.1343,-1.1344,-1.1355,-1.1355,-1.1356,-1.138,-1.1381,-1.1381,-1.1382,-1.1393,-1.1393,-1.1392,0,0,0,0,0,0,0,0,0,0,0,0,0,-1.1346,-1.134,-1.1343,-1.1357,-1.1359,-1.1355,-1.1355,-1.1356,-1.138,-1.1381,-1.1382,-1.1382,-1.1393,-1.1393,-1.1392,-1.1376,0,0,-1.1392,-1.1391,0,0,0,0,0,0,0,0,-1.1346,-1.1346,-1.1355,-1.1356,-1.1358,-1.1367,-1.1359,-1.1362,-1.138,-1.1372,-1.1382,-1.1383,-1.1384,-1.1384,-1.1385,-1.1376,-1.1377,-1.1392,-1.1391,-1.1391,-1.1391,0,0,0,0,0,0,0,-1.1345,-1.1346,-1.1348,-1.1355,-1.1357,-1.1363,-1.1364,-1.1359,-1.1373,-1.1373,-1.1375,-1.1376,-1.1384,-1.1385,-1.1385,-1.1377,-1.1392,-1.1391,-1.1391,-1.1391,-1.1355,-1.1354,0,0,0,0,0,0,-1.1343,-1.1345,-1.1348,-1.1348,-1.1354,-1.1362,-1.1364,-1.1363,-1.1373,-1.1376,-1.1375,-1.1377,-1.1385,-1.1385,-1.1386,-1.1366,-1.1391,-1.1391,-1.1391,-1.1355,-1.1354,-1.1354,0,0,0,0,0,0,-1.1343,-1.1343,-1.1347,-1.1347,-1.1348,-1.1361,-1.1361,-1.1363,-1.1364,-1.1375,-1.1378,-1.1373,-1.1386,-1.1386,-1.1378,-1.1367,-1.1391,-1.1391,-1.1356,-1.1355,-1.1354,-1.1327,0,0,0,0,0,0,-1.1343,-1.1343,-1.1337,-1.1347,-1.1348,-1.134,-1.136,-1.1363,-1.1363,-1.1366,-1.1374,-1.1376,-1.1386,-1.1378,-1.1378,-1.1367,-1.1391,-1.1357,-1.1356,-1.1354,-1.1329,-1.1325,-1.1321,0,0,0,0,0,-1.1342,-1.1329,-1.1336,-1.1337,-1.1341,-1.1339,-1.134,-1.1352,-1.1362,-1.1356,-1.1364,-1.1376,-1.1368,-1.1377,-1.1377,-1.1365,-1.1358,-1.1356,-1.1354,-1.133,-1.1325,-1.1321,0,0,0,0,0,0,-1.1316,-1.133,-1.1339,-1.1328,-1.1332,-1.1343,-1.1336,-1.1347,-1.1347,-1.1349,-1.1364,-1.1366,-1.1356,-1.136,-1.137,-1.135,-1.1365,-1.1363,-1.1347,-1.1342,-1.1339,-1.1337,-1.139,0,0,0,0,0,-1.131,-1.1307,-1.1319,-1.1308,-1.131,-1.1322,-1.1322,-1.1331,-1.1336,-1.1337,-1.1344,-1.1348,-1.1346,-1.1345,-1.1344,-1.133,-1.1331,-1.1322,-1.1318,-1.1315,-1.1313,-1.1304,-1.13,-1.1347,-1.1347,-1.1348,0,0,-1.1295,-1.1302,-1.13,-1.1303,-1.1308,-1.1304,-1.1324,-1.1319,-1.1316,-1.1337,-1.1329,-1.1334,-1.1339,-1.1328,-1.1323,-1.1331,-1.13,-1.1313,-1.131,-1.131,-1.1302,-1.1297,-1.1293,-1.1346,-1.1346,-1.1347,0,0,-1.1266,-1.1272,-1.1263,-1.1267,-1.1273,-1.1282,-1.128,-1.1289,-1.1293,-1.1286,-1.1301,-1.1298,-1.1295,-1.1298,-1.1299,-1.1271,-1.1282,-1.127,-1.1251,-1.1242,-1.1238,-1.1235,-1.1224,-1.122,-1.1268,-1.1268,-1.1268,0,-1.1247,-1.1243,-1.1257,-1.1252,-1.1252,-1.1271,-1.1262,-1.1265,-1.127,-1.127,-1.1279,-1.1276,-1.128,-1.1269,-1.1262,-1.1263,-1.126,-1.1269,-1.1238,-1.1235,-1.1232,-1.1221,-1.1217,-1.1267,-1.1267,-1.1267,-1.1267,0,-1.1218,-1.1215,-1.1207,-1.1212,-1.1212,-1.1205,-1.1217,-1.1216,-1.1225,-1.1232,-1.1224,-1.1231,-1.1231,-1.123,-1.1239,-1.1219,-1.1224,-1.1235,-1.1251,-1.1226,-1.1216,-1.1212,-1.1265,-1.1265,-1.1266,-1.1266,0,0,-1.1173,-1.1186,-1.1183,-1.1185,-1.1193,-1.119,-1.1184,-1.1184,-1.1182,-1.1185,-1.1179,-1.1176,-1.1187,-1.1188,-1.1198,-1.119,-1.1166,-1.1203,-1.1203,-1.1194,-1.1144,-1.1134,-1.1129,-1.1174,-1.1174,-1.1173,-1.1143,0,-1.1145,-1.1134,-1.1147,-1.1133,-1.1129,-1.1147,-1.1141,-1.1145,-1.1152,-1.115,-1.1157,-1.1154,-1.1169,-1.117,-1.1164,-1.117,-1.1156,-1.1173,-1.1167,-1.1167,-1.1164,-1.1124,-1.1114,-1.1085,-1.1139,-1.1139,-1.1138,0,-1.1111,-1.1112,-1.1098,-1.1106,-1.1105,-1.11,-1.1101,-1.1099,-1.1104,-1.1109,-1.111,-1.1122,-1.1115,-1.1131,-1.1122,-1.1133,-1.1131,-1.1134,-1.1134,-1.1132,-1.115,-1.112,-1.1076,-1.1071,-1.1133,-1.1133,-1.1134,0,-1.1077,-1.1076,-1.1067,-1.1068,-1.1078,-1.1074,-1.1078,-1.1083,-1.1083,-1.1084,-1.1083,-1.1084,-1.1083,-1.1083,-1.1094,-1.1105,-1.1082,-1.11,-1.1086,-1.1085,-1.1078,-1.1078,-1.1032,-1.108,-1.108,-1.1081,-1.1081,0,-1.1043,-1.1033,-1.1051,-1.1046,-1.1035,-1.105,-1.1039,-1.1045,-1.1049,-1.1045,-1.1061,-1.1056,-1.1071,-1.1068,-1.1077,-1.1066,-1.1067,-1.107,-1.1072,-1.1067,-1.1067,-1.1065,-1.1067,-1.1079,-1.108,-1.108,-1.108,0,-1.1003,-1.1015,-1.1006,-1.1016,-1.1019,-1.101,-1.1019,-1.1014,-1.1022,-1.1015,-1.1015,-1.1027,-1.1024,-1.1035,-1.1034,-1.104,-1.1024,-1.1031,-1.1022,-1.1024,-1.1008,-1.1008,-1.0958,-1.0951,-1.1005,-1.1004,-1.1004,0,-1.098,-1.0973,-1.0982,-1.098,-1.0984,-1.098,-1.098,-1.0995,-1.0993,-1.0998,-1.0992,-1.099,-1.0989,-1.0983,-1.0991,-1.099,-1.0995,-1.0978,-1.0995,-1.099,-1.0993,-1.0992,-1.0991,-1.0973,-1.0973,-1.0972,-1.0972,0,-1.0937,-1.0943,-1.0942,-1.0943,-1.0942,-1.0943,-1.0945,-1.0943,-1.0958,-1.0956,-1.0953,-1.0952,-1.0951,-1.0948,-1.0949,-1.0952,-1.0964,-1.0967,-1.0963,-1.0957,-1.0952,-1.0953,-1.1011,-1.0967,-1.0968,-1.0968,-1.0968,-1.0968,-1.0903,-1.0898,-1.0903,-1.0901,-1.0905,-1.0906,-1.0901,-1.0909,-1.0907,-1.0907,-1.0916,-1.0911,-1.0915,-1.0917,-1.092,-1.0915,-1.0923,-1.0918,-1.0917,-1.0915,-1.0911,-1.0954,-1.0916,-1.0916,-1.0916,-1.0916,-1.0916,0,-1.086,-1.0865,-1.0863,-1.0865,-1.0864,-1.0876,-1.0879,-1.0876,-1.0872,-1.0875,-1.0874,-1.087,-1.0868,-1.0876,-1.0875,-1.087,-1.0875,-1.0868,-1.0868,-1.0868,-1.0905,-1.0908,-1.0864,-1.0864,-1.0864,-1.0864,-1.0864,-1.0864,-1.0837,-1.0827,-1.0834,-1.0826,-1.0831,-1.0826,-1.0826,-1.0828,-1.0831,-1.0825,-1.0824,-1.0829,-1.0834,-1.0833,-1.0831,-1.0834,-1.0832,-1.0823,-1.0827,-1.0861,-1.0866,-1.0871,-1.0873,-1.0823,-1.0823,-1.0791,-1.0791,-1.079]}]]